Weather History for K40J - March, 2013

Change the Weather History Date:

Thursday, March 7, 2013

  Actual Average (KCTY) Record (KCTY)
Temperature  
Mean Temperature 47 °F 60 °F  
Max Temperature 64 °F 75 °F 81 °F (2004)
Min Temperature 30 °F 47 °F 32 °F (2013)
Degree Days  
Heating Degree Days 18 6  
Month to date heating degree days 44  
Since 1 July heating degree days 1164  
Cooling Degree Days 0 1  
Month to date cooling degree days 7  
Year to date cooling degree days 34  
Moisture  
Dew Point 34 °F    
Average Humidity 69    
Maximum Humidity 100    
Minimum Humidity 28    
Precipitation  
Precipitation 0.01 in 0.13 in 3.08 in (2008)
Month to date precipitation 0.89  
Year to date precipitation 8.20  
Sea Level Pressure  
Sea Level Pressure 30.23 in    
Wind  
Wind Speed 3 mph (NNW)    
Max Wind Speed 10 mph    
Max Gust Speed -    
Visibility 10 miles    
Events      
T = Trace of Precipitation, MM = Missing Value Source: NWS Daily Summary

Daily Weather History Graph

Daily Weather History Graph

Search for Another Location

Airport or City:

Trip Planner

Search our weather history database for the weather conditions in past years. The results will help you decide how hot, cold, wet, or windy it might be!

Date:

Astronomy

Mar. 07, 2013 Rise Set
Actual Time 6:53 AM EST 6:37 PM EST
Civil Twilight 6:29 AM EST 7:01 PM EST
Nautical Twilight 6:01 AM EST 7:29 PM EST
Astronomical Twilight 5:33 AM EST 7:57 PM EST
Moon 3:36 AM EST (3/7) 2:38 PM EST (3/7)
Length of Visible Light 12h 32m
Length of Day
11h 44m
Waning Crescent, 20% of the Moon is Illuminated
Mar 7
Waning Crescent
Mar 11
New
Mar 19
First Quarter
Mar 27
Full
Apr 3
Last Quarter

Hourly Weather History & Observations

Time (EST) Temp. Windchill Dew Point Humidity Pressure Visibility Wind Dir Wind Speed Gust Speed Precip Events Conditions
12:15 AM 37.4 °F - 32.0 °F 81% 30.20 in 10.0 mi Calm Calm - N/A   Clear
12:35 AM 37.4 °F - 33.8 °F 87% 30.20 in 10.0 mi Calm Calm - N/A   Clear
12:53 AM 34.0 °F 29.8 °F 28.9 °F 82% 30.20 in - SW 4.6 mph - N/A   Unknown
12:55 AM 33.8 °F 30.8 °F 32.0 °F 93% 30.21 in 10.0 mi WSW 3.5 mph - N/A   Clear
1:15 AM 35.6 °F - 33.8 °F 93% 30.22 in 10.0 mi Calm Calm - N/A   Clear
1:35 AM 35.6 °F - 33.8 °F 93% 30.22 in 10.0 mi Calm Calm - N/A   Clear
1:53 AM 35.1 °F - 30.0 °F 82% 30.21 in - Calm Calm - N/A   Unknown
1:55 AM 35.6 °F - 33.8 °F 93% 30.22 in 10.0 mi Calm Calm - N/A   Clear
2:15 AM 35.6 °F - 33.8 °F 93% 30.21 in 10.0 mi Calm Calm - N/A   Clear
2:35 AM 33.8 °F - 32.0 °F 93% 30.21 in 10.0 mi Calm Calm - N/A   Clear
2:53 AM 30.9 °F - 27.0 °F 85% 30.20 in - Calm Calm - N/A   Unknown
2:55 AM 32.0 °F - 32.0 °F 100% 30.21 in 10.0 mi Calm Calm - N/A   Clear
3:15 AM 33.8 °F 30.8 °F 33.8 °F 100% 30.21 in 10.0 mi NNW 3.5 mph - N/A   Clear
3:35 AM 35.6 °F 31.7 °F 33.8 °F 93% 30.21 in 10.0 mi NNW 4.6 mph - N/A   Clear
3:53 AM 34.0 °F 28.8 °F 28.9 °F 82% 30.21 in - NW 5.8 mph - N/A   Unknown
3:55 AM 35.6 °F 31.7 °F 32.0 °F 87% 30.21 in 10.0 mi NNW 4.6 mph - N/A   Clear
4:15 AM 35.6 °F 31.7 °F 33.8 °F 93% 30.21 in 10.0 mi NNW 4.6 mph - N/A   Clear
4:35 AM 35.6 °F 32.8 °F 32.0 °F 87% 30.22 in 10.0 mi NW 3.5 mph - N/A   Clear
4:53 AM 35.1 °F 31.0 °F 28.9 °F 78% 30.21 in - NNW 4.6 mph - N/A   Unknown
4:55 AM 35.6 °F 32.8 °F 32.0 °F 87% 30.22 in 10.0 mi NNW 3.5 mph - N/A   Clear
5:15 AM 35.6 °F 32.8 °F 32.0 °F 87% 30.23 in 10.0 mi North 3.5 mph - N/A   Clear
5:35 AM 35.6 °F 32.8 °F 32.0 °F 87% 30.23 in 10.0 mi North 3.5 mph - N/A   Clear
5:53 AM 34.0 °F - 28.9 °F 82% 30.22 in - Calm Calm - N/A   Unknown
5:55 AM 35.6 °F - 32.0 °F 87% 30.23 in 10.0 mi Calm Calm - N/A   Clear
6:15 AM 33.8 °F - 32.0 °F 93% 30.24 in 10.0 mi Calm Calm - N/A   Clear
6:35 AM 32.0 °F - 32.0 °F 100% 30.24 in 10.0 mi Calm Calm - N/A   Clear
6:53 AM 30.9 °F - 27.0 °F 85% 30.24 in - Calm Calm - N/A   Unknown
6:55 AM 32.0 °F - 32.0 °F 100% 30.24 in 10.0 mi Calm Calm - N/A   Clear
7:15 AM 32.0 °F - 32.0 °F 100% 30.25 in 10.0 mi Calm Calm - N/A   Clear
7:35 AM 32.0 °F - 32.0 °F 100% 30.25 in 10.0 mi Calm Calm - N/A   Clear
7:53 AM 37.0 °F 34.5 °F 30.9 °F 79% 30.25 in - North 3.5 mph - N/A   Unknown
7:55 AM 37.4 °F 33.8 °F 35.6 °F 93% 30.26 in 10.0 mi North 4.6 mph - N/A   Clear
8:15 AM 39.2 °F 34.2 °F 35.6 °F 87% 30.26 in 10.0 mi North 6.9 mph - N/A   Clear
8:35 AM 41.0 °F 35.8 °F 33.8 °F 76% 30.26 in 10.0 mi NNE 8.1 mph - N/A   Clear
8:53 AM 43.0 °F 37.2 °F 30.0 °F 60% 30.25 in - NNE 10.4 mph - N/A   Unknown
8:55 AM 42.8 °F 37.0 °F 33.8 °F 70% 30.26 in 10.0 mi NNE 10.4 mph - N/A   Clear
9:15 AM 44.6 °F 40.2 °F 32.0 °F 61% 30.27 in 10.0 mi NNE 8.1 mph - N/A   Clear
9:35 AM 44.6 °F 39.7 °F 32.0 °F 61% 30.25 in 10.0 mi NNE 9.2 mph - N/A   Clear
9:53 AM 46.0 °F 41.9 °F 30.0 °F 54% 30.26 in - ENE 8.1 mph - N/A   Unknown
9:55 AM 46.4 °F 42.9 °F 32.0 °F 57% 30.26 in 10.0 mi East 6.9 mph - N/A   Clear
10:15 AM 48.2 °F - 32.0 °F 54% 30.27 in 10.0 mi East 4.6 mph - N/A   Clear
10:35 AM 50.0 °F - 32.0 °F 50% 30.28 in 10.0 mi NNE 5.8 mph - N/A   Clear
10:53 AM 51.1 °F - 30.0 °F 44% 30.27 in - NE 6.9 mph - 0.01 in   Unknown
10:55 AM 50.0 °F - 32.0 °F 50% 30.28 in 10.0 mi NE 6.9 mph - N/A   Clear
11:15 AM 51.8 °F - 32.0 °F 47% 30.28 in 10.0 mi North 5.8 mph - N/A   Clear
11:35 AM 51.8 °F - 32.0 °F 47% 30.28 in 10.0 mi NE 3.5 mph - N/A   Clear
11:53 AM 54.0 °F - 30.0 °F 40% 30.27 in - Calm Calm - N/A   Unknown
11:55 AM 53.6 °F - 32.0 °F 44% 30.28 in 10.0 mi NNW 3.5 mph - N/A   Clear
12:15 PM 55.4 °F - 32.0 °F 41% 30.27 in 10.0 mi Calm Calm - N/A   Clear
12:35 PM 55.4 °F - 32.0 °F 41% 30.27 in 10.0 mi Calm Calm - N/A   Clear
12:53 PM 59.0 °F - 30.0 °F 33% 30.25 in - North 8.1 mph - N/A   Unknown
12:55 PM 59.0 °F - 32.0 °F 36% 30.25 in 10.0 mi NNW 6.9 mph - N/A   Clear
1:15 PM 59.0 °F - 32.0 °F 36% 30.24 in 10.0 mi WSW 3.5 mph - N/A   Clear
1:35 PM 60.8 °F - 30.2 °F 31% 30.23 in 10.0 mi NNW 5.8 mph - N/A   Clear
1:53 PM 62.1 °F - 30.0 °F 30% 30.22 in - North 8.1 mph - N/A   Unknown
1:55 PM 60.8 °F - 32.0 °F 34% 30.22 in 10.0 mi North 5.8 mph - N/A   Clear
2:15 PM 62.6 °F - 32.0 °F 32% 30.21 in 10.0 mi WNW 8.1 mph - N/A   Clear
2:35 PM 62.6 °F - 32.0 °F 32% 30.21 in 10.0 mi NW 9.2 mph - N/A   Clear
2:53 PM 63.0 °F - 30.9 °F 30% 30.19 in - West 6.9 mph - N/A   Unknown
2:55 PM 62.6 °F - 32.0 °F 32% 30.20 in 10.0 mi WNW 5.8 mph - N/A   Clear
3:15 PM 64.4 °F - 32.0 °F 30% 30.19 in 10.0 mi NNW 8.1 mph - N/A   Clear
3:35 PM 64.4 °F - 32.0 °F 30% 30.19 in 10.0 mi NNW 8.1 mph - N/A   Clear
3:53 PM 64.0 °F - 30.0 °F 28% 30.17 in - Variable 3.5 mph - N/A   Unknown
3:55 PM 64.4 °F - 32.0 °F 30% 30.18 in 10.0 mi NNW 3.5 mph - N/A   Clear
4:15 PM 64.4 °F - 32.0 °F 30% 30.18 in 10.0 mi WNW 8.1 mph - N/A   Clear
4:35 PM 64.4 °F - 32.0 °F 30% 30.18 in 10.0 mi NW 10.4 mph - N/A   Clear
4:53 PM 64.0 °F - 30.9 °F 29% 30.16 in - WNW 4.6 mph - N/A   Unknown
4:55 PM 64.4 °F - 32.0 °F 30% 30.17 in 10.0 mi NW 8.1 mph - N/A   Clear
5:15 PM 62.6 °F - 39.2 °F 42% 30.18 in 10.0 mi WSW 8.1 mph - N/A   Clear
5:35 PM 60.8 °F - 41.0 °F 48% 30.18 in 10.0 mi WSW 8.1 mph - N/A   Clear
5:53 PM 57.9 °F - 39.9 °F 51% 30.18 in - WSW 9.2 mph - N/A   Unknown
5:55 PM 59.0 °F - 41.0 °F 51% 30.19 in 10.0 mi WSW 6.9 mph - N/A   Clear
6:15 PM 55.4 °F - 42.8 °F 63% 30.20 in 10.0 mi WSW 8.1 mph - N/A   Clear
6:35 PM 53.6 °F - 42.8 °F 67% 30.21 in 10.0 mi WSW 3.5 mph - N/A   Clear
6:53 PM 51.1 °F - 39.9 °F 66% 30.20 in - SW 5.8 mph - N/A   Unknown
6:55 PM 51.8 °F - 42.8 °F 71% 30.21 in 10.0 mi WSW 5.8 mph - N/A   Clear
7:53 PM 50.0 °F - 41.0 °F 71% 30.22 in - Calm Calm - N/A   Unknown
8:35 PM 50.0 °F - 44.6 °F 82% 30.23 in 10.0 mi Calm Calm - N/A   Clear
8:53 PM 48.0 °F - 41.0 °F 77% 30.23 in - Calm Calm - N/A   Unknown
8:55 PM 50.0 °F - 44.6 °F 82% 30.24 in 10.0 mi Calm Calm - N/A   Clear
9:15 PM 46.4 °F - 44.6 °F 93% 30.24 in 10.0 mi Calm Calm - N/A   Clear
9:35 PM 46.4 °F - 42.8 °F 87% 30.24 in 10.0 mi Calm Calm - N/A   Clear
9:53 PM 45.0 °F - 39.0 °F 80% 30.23 in - Calm Calm - N/A   Unknown
9:55 PM 44.6 °F - 42.8 °F 93% 30.23 in 10.0 mi Calm Calm - N/A   Clear
10:15 PM 44.6 °F - 42.8 °F 93% 30.24 in 7.0 mi Calm Calm - N/A   Clear
10:35 PM 42.8 °F - 42.8 °F 100% 30.24 in 7.0 mi Calm Calm - N/A   Clear
10:53 PM 42.1 °F - 37.9 °F 85% 30.23 in - Calm Calm - N/A   Unknown
10:55 PM 42.8 °F - 42.8 °F 100% 30.23 in 2.0 mi Calm Calm - N/A   Clear
11:15 PM 42.8 °F - 42.8 °F 100% 30.23 in 5.0 mi Calm Calm - N/A   Clear
11:35 PM 41.0 °F - 41.0 °F 100% 30.23 in 1.2 mi Calm Calm - N/A   Mist
11:53 PM 39.9 °F - 37.0 °F 89% 30.22 in - Calm Calm - N/A   Unknown
11:55 PM 41.0 °F - 41.0 °F 100% 30.23 in 7.0 mi Calm Calm - N/A   Clear